This is the latest recevied weather packets stored in our database for station/object OE5RPP. If no packets are shown the sender has not sent any weather packets the latest 10 day(s).
| Time | Temp. | Humidity | Pressure | Rain* | Wind** | Luminosity | Snow |
|---|---|---|---|---|---|---|---|
| 1787561793 | 18.89° C | 30% | 1023.9 hPa | 0 mm | - | - | - |
| 1787561193 | 18.33° C | 31% | 1023.9 hPa | 0 mm | - | - | - |
| 1787560594 | 18.33° C | 34% | 1023.9 hPa | 0 mm | - | - | - |
| 1787559994 | 17.78° C | 39% | 1023.9 hPa | 0 mm | - | - | - |
| 1787559393 | 17.22° C | 36% | 1023.9 hPa | 0 mm | - | - | - |
| 1787558794 | 16.67° C | 37% | 1023.9 hPa | 0 mm | - | - | - |
| 1787558194 | 16.67° C | 45% | 1023.9 hPa | 0 mm | - | - | - |
| 1787557593 | 16.11° C | 46% | 1023.9 hPa | 0 mm | - | - | - |
| 1787556992 | 15.56° C | 47% | 1023.9 hPa | 0 mm | - | - | - |
| 1787556392 | 15.56° C | 50% | 1023.9 hPa | 0 mm | - | - | - |
| 1787555793 | 15° C | 56% | 1023.9 hPa | 0 mm | - | - | - |
| 1787555192 | 14.44° C | 58% | 1023.9 hPa | 0 mm | - | - | - |
| 1787554592 | 14.44° C | 61% | 1023.9 hPa | 0 mm | - | - | - |
| 1787553993 | 13.89° C | 63% | 1024.9 hPa | 0 mm | - | - | - |
| 1787553393 | 13.89° C | 64% | 1024.9 hPa | 0 mm | - | - | - |
| 1787552793 | 13.33° C | 66% | 1024.9 hPa | 0 mm | - | - | - |
| 1787552194 | 13.33° C | 71% | 1024.9 hPa | 0 mm | - | - | - |
| 1787551593 | 12.78° C | 72% | 1024.9 hPa | 0 mm | - | - | - |
| 1787550993 | 12.78° C | 73% | 1024.9 hPa | 0 mm | - | - | - |
| 1787550392 | 12.22° C | 72% | 1024.9 hPa | 0 mm | - | - | - |
| 1787549794 | 11.67° C | 72% | 1024.9 hPa | 0 mm | - | - | - |
| 1787549193 | 11.11° C | 71% | 1024.9 hPa | 0 mm | - | - | - |
| 1787548592 | 11.11° C | 71% | 1024.9 hPa | 0 mm | - | - | - |
| 1787547993 | 11.11° C | 71% | 1024.9 hPa | 0 mm | - | - | - |
| 1787547393 | 11.11° C | 71% | 1024.9 hPa | 0 mm | - | - | - |
* Rain latest hour (hover to see other rain measurements)
** Current wind speed in m/s (hover to see current wind gust speed)